#timestamp,LO_Frequency,Hit,StdDev 
1583773215.3,286046994.1,N
1583773235.1,286046991.3,Y
1583773255.9,286046991.7,P
1583773275.7,286046992.6,N
1583773295.6,286046993.2,N
1583773315.4,286046990.4,Y
1583773335.2,286046997.1,P
1583773355.1,286047002.0,N
1583773356.0,286047002.0,N
1583773375.8,286046999.8,N
1583773395.7,286047000.2,N
1583773415.5,286047000.8,N
1583773435.3,286046997.0,N
1583773455.2,286046995.2,N
1583773475.0,286046998.6,N
1583773475.9,286046998.6,N
1583773495.8,286046998.2,N
1583773515.6,286047000.5,N
1583773535.4,286047000.8,N
1583773555.3,286046996.8,N
1583773575.1,286046995.9,N
1583773595.8,286046993.8,N
1583773615.7,286046995.1,N
1583773635.5,286046996.2,N
1583773655.4,286046996.2,N
1583773675.2,286046995.3,N
1583773695.0,286047001.2,N
1583773695.9,286047001.2,N
1583773715.8,286046998.8,N
1583773735.6,286047000.4,N
1583773755.5,286047000.9,N
1583773775.3,286047001.1,N
1583773795.1,286046997.6,N
1583773815.9,286046995.9,N
1583773835.7,286046994.0,N
1583773855.5,286046992.1,Y
1583773875.4,286046992.4,P
1583773895.2,286046993.5,N
1583773915.1,286046994.6,N
1583773916.0,286046994.6,N
1583773935.8,286046990.2,Y
1583773955.6,286046994.6,P
1583773975.5,286046991.8,P
1583773995.3,286046993.3,P
1583774015.2,286046993.3,Y
1583774035.9,286046999.8,P
1583774055.7,286047003.1,N
1583774075.6,286047000.6,N
1583774095.4,286047002.0,N
1583774115.2,286047002.7,N
1583774135.1,286047000.1,N
1583774136.0,286047000.1,N
1583774155.8,286047001.1,N
1583774175.7,286046998.9,N
1583774195.5,286047000.5,N
1583774215.3,286047001.4,N
1583774235.2,286047001.8,N
1583774255.0,286047002.4,N
1583774255.9,286047002.4,N
1583774275.7,286047001.4,N
1583774295.6,286047003.5,N
1583774315.4,286047009.0,Y
1583774335.3,286047007.6,P
1583774355.1,286047007.4,N
1583774375.8,286047009.0,N
1583774395.7,286047006.6,N
1583774415.5,286047003.4,N
1583774435.4,286047004.5,N
1583774455.2,286047004.7,N
1583774475.0,286047003.3,N
1583774475.9,286047003.3,N
1583774495.8,286047007.5,Y
1583774515.6,286047000.1,P
1583774535.4,286047001.9,N
1583774555.3,286047000.6,N
1583774575.1,286047005.6,N
1583774595.9,286047001.0,N
1583774615.7,286047000.8,N
1583774635.5,286047001.9,N
1583774655.4,286046999.7,N
1583774675.2,286046999.9,N
1583774695.0,286046998.7,N
1583774695.9,286046998.7,N
1583774715.8,286046998.5,N
1583774735.6,286046996.5,N
1583774755.5,286046998.8,N
1583774775.3,286047001.9,N
1583774795.1,286047002.5,N
1583774815.9,286047001.8,N
1583774835.7,286047006.9,Y
1583774855.5,286047005.7,P
1583774875.4,286047007.6,P
1583774895.2,286047005.2,N
1583774915.1,286047004.7,N
1583774916.0,286047004.7,N
1583774935.8,286047004.0,N
1583774955.6,286047003.6,N
1583774975.5,286047005.1,N
1583774995.3,286047010.4,Y
1583775015.2,286047003.5,P
1583775035.9,286047005.1,P
1583775055.7,286047005.4,P
1583775075.6,286047003.9,Y
1583775095.4,286046998.7,P
1583775115.2,286047011.9,P
1583775135.1,286047002.3,N
1583775136.0,286047002.3,N
1583775155.8,286047000.0,N
1583775175.7,286047004.1,N
1583775195.5,286047005.4,N
1583775215.3,286047003.7,N
1583775235.2,286047003.3,N
1583775255.0,286047003.0,N
1583775255.9,286047003.0,N
1583775275.7,286047004.9,N
1583775295.6,286047005.0,N
1583775315.4,286047005.5,N
1583775335.3,286047003.2,N
1583775355.1,286047006.0,N
1583775375.8,286047001.3,N
1583775395.7,286047003.7,N
1583775415.5,286047004.4,N
1583775435.4,286047007.5,N
1583775455.2,286047004.5,N
1583775475.0,286047004.9,N
1583775475.9,286047004.9,N
1583775495.8,286047004.5,N
1583775515.6,286047006.5,N
1583775535.5,286047009.2,Y
1583775555.3,286047005.4,P
1583775575.1,286047007.4,P
1583775595.9,286047007.5,P
1583775615.7,286047005.8,Y
1583775635.5,286046999.2,P
1583775655.4,286046997.6,N
1583775675.2,286046995.6,N
1583775695.1,286046996.2,N
1583775696.0,286046996.2,N
1583775715.8,286046997.3,N
1583775735.6,286046996.9,N
1583775755.5,286046997.9,N
1583775775.3,286046997.8,N
1583775795.1,286046997.3,N
1583775815.9,286046999.5,N
1583775835.7,286046998.7,N
1583775855.6,286046996.6,N
1583775875.4,286047004.2,N
1583775895.2,286047001.6,N
1583775915.1,286047001.6,N
1583775916.0,286047001.6,N
1583775935.8,286047004.1,N
1583775955.6,286047004.1,N
1583775975.5,286047005.9,N
1583775995.3,286047010.0,N
1583776015.2,286047012.3,Y
1583776035.9,286047008.8,P
1583776055.7,286047008.4,N
1583776075.6,286047011.8,N
1583776095.4,286047016.2,Y
1583776115.2,286047016.7,P
1583776135.1,286047016.1,P
1583776136.0,286047016.1,P
1583776155.8,286047020.8,Y
1583776175.7,286047011.5,P
1583776195.5,286047018.2,P
1583776215.3,286047019.0,P
1583776235.2,286047023.7,Y
1583776255.0,286047010.6,P
1583776255.9,286047010.6,P
1583776275.8,286047008.6,P
1583776295.6,286047011.7,Y
1583776315.4,286046998.1,P
1583776335.3,286046999.0,N
1583776355.1,286047000.7,N
1583776375.9,286046996.7,N
1583776395.7,286046997.0,N
1583776415.5,286046995.9,N
1583776435.4,286046993.4,N
1583776455.2,286046994.5,N
1583776475.0,286046999.5,N
1583776475.9,286046999.5,N
1583776495.8,286047002.8,N
1583776515.6,286047000.2,N
1583776535.5,286047001.0,N
1583776555.3,286046997.6,N
1583776575.1,286046998.8,N
1583776595.9,286046997.4,N
1583776615.7,286046994.4,N
1583776635.5,286046990.5,N
1583776655.4,286046992.6,N
1583776675.2,286046992.0,N
1583776695.1,286046990.9,N
1583776696.0,286046990.9,N
1583776715.8,286046988.1,N
1583776735.6,286046986.5,N
1583776755.5,286046983.2,Y
1583776775.3,286046984.7,P
1583776795.2,286046982.1,P
